Showing default

OPS 3662 (VELA 3), 836

Orbit data source: Space-Track

OPS 3662 (VELA 3), 836 is a payload satellite owned by USAF SSD (US) in HEO that was launched on Fri, 17 Jul 1964 UTC via an ATLAS AGENA D launch vehicle from the Air Force Eastern Test Range (AFETR). Payload-class satellites include a variety of spacecraft equipped with specific instruments for various scientific and technological missions. These include communications satellites like Starlink; space stations such as the ISS; scientific satellites like the Hubble; Earth observation satellites from companies like Planet Labs, Umbra, and HawkEye 360; GPS; miniature CubeSats for education and research; and military/defense satellites.

Loading next visibility...
Identifier
836, 1964-040A
Orbit
HEO
Country
Flag of USUS
Related business
Manufacturer
TRW
Mission
Spacecraft
Bus & Motor
VELA, BE-3
Mass
~227 kg wet, 125 kg dry
Launch date (UTC)
1964-07-17 (62 years ago)
Launch vehicle
ATLAS AGENA D
Launch site
Air Force Eastern Test Range (AFETR)
Object type
Payload
Rocket body
Debris
Shape & HBR
Unknown
Radar Cross Section
Medium (>0.1 m² and <1 m²)

Expand to show TLE details & history
Last TLE update: in 2 days

TLE from in 2 days
0 OPS 3662 (VELA 3)
1   836U 64040A   26205.14570441  .00000263  00000-0  00000+0 0  9992
2   836  53.0320 117.6638 5228552 274.8668   0.2882  0.23919042 11084
Epoch: 2026-07-24T03:29Z
TLE epoch observation values (Epoch: 2026-07-24T03:29:48.861Z)
Latitude
-52.6385°
Longitude
45.02258°
Altitude
46,418.566 km
Speed
3.386 km/s
True Right ascension
02h 37m 24s
True Declination
-52° 36' 58"
Sunlit
Object was in daylight at epoch
Visualization orbit readout
Latitude
Unknown
Longitude
Unknown
Altitude
Unknown
Speed
Unknown
Apparent Right ascension
Unknown
Apparent Declination
Unknown
Sunlit
N/A
Visualization observer readout
Local Sidereal Time
17:27:06
Azimuth
Unknown
Elevation
Unknown
Doppler factor
Unknown
Orbital elements
Apogee altitude
160,563.617 km
Perigee altitude
45,928.471 km
Semi-major axis
109,624.181 km
Eccentricity
0.52286
Inclination
53.032°
RAAN
117.6638°
Arg. of periapsis
274.8668°
True anomaly
1.07902°
Mean anomaly
0.2882°
Eccentric anomaly
0.604°
Mean motion
0.0598 °/min
Orbital period
6,020.31 mins
BSTAR
0
Loading maneuver chart data...
Computing Atmospheric mass density...
Loading historical data...
Loading historical data...
Loading historical data...
Loading historical data...
Loading historical data...
Loading historical data...
Loading historical data...
Other satellites on launch #40 in the year 1964 (1964-07-17 UTC)

Documentation

Showing up to 5 results
|